Location: Eferding
(48.3167°N, 14.0167°E)
Time: 07:27:31
(UTC+00:00)

Cosmos 724 - Pass Details

Date: 12 November 2019
Orbit: 861 x 934 km, 65.6° (Epoch: 10 December)

Event Time Altitude Azimuth Distance (km) Brightness Sun altitude
Rises 18:28:29 0° 322° (NW) 3,491 8.0 -29.8°
Reaches altitude 10° 18:31:00 10° 321° (NW) 2,539 7.2 -30.2°
Enters shadow 18:36:10 67° 292° (WNW) 940 4.5 -31.0°
